Location: Pulvis Stellarum Observatory
(41.6962°N, 71.4263°W)
Time: 18:26:59
(UTC-04:00)

Daily predictions for brighter satellites

Satellite Brightness Start Highest point End
(mag) Time Altitude Azimuth Time Altitude Azimuth Time Altitude Azimuth
Cosmos 841 Rocket 3.7 18:54:04 10° S 18:59:00 49° ESE 19:03:57 10° NNE
NOSS 3-1 (C) 4.1 18:52:35 10° NNW 19:00:09 69° NE 19:08:33 10° SE
SKYMED 2 3.7 18:56:19 10° NNE 19:00:41 86° WNW 19:05:01 10° SSW
Cosmos 1606 Rocket 3.5 18:56:27 10° S 19:00:47 82° E 19:05:07 10° N
Cosmos 468 Rocket 4.5 18:55:46 10° SSW 19:00:56 68° WNW 19:06:13 10° NNE
Cosmos 1766 4.5 18:58:49 10° SE 19:01:48 21° E 19:04:46 10° NE
Cosmos 371 Rocket 4.1 18:57:03 10° SSW 19:01:51 57° WNW 19:06:41 10° NNE
Cosmos 1953 Rocket 3.5 18:59:30 10° N 19:03:51 73° E 19:08:09 10° SSE
BREEZE-M DEB 4.0 18:51:31 10° WNW 19:04:03 88° SSW 19:07:33 10° ESE
Cosmos 1937 Rocket 3.6 18:58:53 10° NNW 19:04:13 87° WSW 19:09:29 10° SSE
Resurs 01 Rocket 3.4 19:02:04 10° E 19:04:19 14° ENE 19:06:33 10° NNE
Cosmos 2058 Rocket 3.1 19:04:31 10° S 19:08:47 58° E 19:13:06 10° NNE
Cosmos 2184 Rocket 4.4 19:03:05 10° SSE 19:08:54 41° E 19:14:48 10° NNE
Meteor 2-13 Rocket 4.4 19:06:09 10° S 19:12:10 66° E 19:18:10 10° NNE
Cosmos 540 Rocket 4.1 19:07:47 10° SSE 19:12:15 32° E 19:16:44 10° NE
Cosmos 389 Rocket 3.4 19:09:15 10° SSW 19:12:40 54° W 19:16:06 10° N
Cosmos 1271 Rocket 4.0 19:10:24 10° SSW 19:14:02 46° WNW 19:17:46 10° N
SL-27 R/B 4.3 19:14:56 10° SE 19:16:45 13° E 19:18:35 10° ENE
Cosmos 1763 Rocket 3.6 19:12:14 10° SSW 19:17:20 85° WNW 19:22:33 10° NNE
SL-08 ROCKET BODY 4.3 19:11:47 10° S 19:17:36 70° E 19:23:34 10° NNE
HJ-1C 4.1 19:22:21 10° SE 19:25:23 33° ENE 19:28:28 10° N
BREEZE-M DEB (TANK) 4.2 19:23:03 10° WNW 19:26:27 39° NNE 19:36:33 10° E
Cosmos 1805 4.1 19:30:17 10° SSE 19:33:39 28° E 19:37:01 10° NNE
Cosmos 1943 Rocket 4.0 19:30:22 10° NW 19:35:19 33° WSW 19:40:16 10° SSW
ATLAS CENTAUR R/B 3.6 19:25:46 10° NW 19:40:45 82° SW 19:45:31 11° SE
CZ-2D R/B 3.9 19:38:21 14° SE 19:41:06 34° ENE 19:44:35 10° N
Cosmos 304 Rocket 4.1 19:38:17 10° SSW 19:43:03 69° WNW 19:47:51 10° NNE
Spot 2 Rocket 4.0 19:47:50 18° SE 19:51:05 37° ENE 19:55:42 10° N
Meteor 1-24 Rocket 3.8 19:45:13 10° N 19:51:13 90° E 19:56:59 10° S
Thor Agena Rocket 4.0 19:47:23 10° N 19:52:36 66° WNW 19:57:42 10° SSW
BREEZE M DEB (TANK) 4.0 19:46:00 10° W 19:52:37 34° NNW 19:54:56 13° NE
Cosmos 1697 Rocket 4.3 19:51:59 10° N 19:55:31 17° NE 19:56:47 15° ENE
Cosmos 836 Rocket 4.4 19:50:56 10° SSW 19:56:13 86° ESE 20:01:31 10° NNE
Cosmos 1980 Rocket 4.2 19:55:40 10° NNE 19:56:59 11° NE 19:58:05 10° NE
ISS -3.5 19:53:51 10° SSW 19:56:59 45° SE 19:57:34 40° ESE
ALOS 3.9 19:57:31 10° SSW 20:01:48 35° W 20:06:06 10° NNW
BREEZE M DEB (TANK) 3.1 19:58:21 10° WNW 20:05:05 69° SW 20:06:19 34° SE
SJ 16-02 1.3 20:03:02 10° N 20:07:24 59° ENE 20:09:12 32° SE
SJ-6B 3.4 20:03:48 10° S 20:07:44 58° W 20:11:38 10° NNW
Cosmos 783 Rocket 4.5 20:04:38 10° S 20:09:43 57° ESE 20:14:48 10° NNE
Cosmos 1953 2.5 20:11:47 41° SE 20:12:37 47° E 20:16:32 10° NNE
H-2A R/B 3.9 20:09:25 10° S 20:12:57 41° W 20:16:32 10° NNW
Resurs 1-3 3.5 20:11:58 29° SSE 20:14:04 64° ENE 20:18:25 10° N
Cosmos 2154 Rocket 3.9 20:08:02 10° S 20:14:12 72° E 20:20:27 10° NNE
Cosmos 372 Rocket 4.0 20:11:44 10° NNW 20:17:01 83° WSW 20:20:59 18° SSE
Cosmos 1125 Rocket 3.7 20:11:54 10° NNW 20:17:13 74° WSW 20:21:54 13° S
Cosmos 1356 3.6 20:19:08 10° NNW 20:22:37 73° W 20:23:36 44° S
Envisat 2.9 20:21:01 31° SSE 20:23:27 69° ENE 20:28:31 10° N
Cosmos 2341 Rocket 3.9 20:21:44 10° S 20:27:50 65° E 20:34:01 10° NNE
Cosmos 1900 4.5 20:27:59 10° SW 20:33:04 79° WNW 20:38:16 10° NNE
ATLAS 2AS CENTAUR R/B 3.4 20:26:14 10° NNW 20:33:57 47° NE 20:36:22 37° E
COSMOS 2406 4.4 20:28:55 10° SW 20:34:21 44° WNW 20:39:51 10° NNE
Resurs 01 Rocket 2.0 20:38:07 28° S 20:40:17 61° W 20:44:40 10° NNW
Meteor 2-21 4.4 20:38:44 42° SE 20:40:31 57° E 20:46:31 10° NNE
GP-B 3.6 20:37:53 10° N 20:42:16 59° W 20:46:08 13° SSW
Cosmos 1674 2.9 20:38:37 10° NNW 20:41:52 63° NW 20:41:52 63° NW
Nadezhda 3 Rocket 4.2 20:38:07 10° NNW 20:44:23 70° W 20:50:14 12° S
MOS 1-B Rocket 4.0 20:40:08 20° S 20:44:33 77° WSW 20:50:13 10° NNW
H-2A R/B 4.2 20:47:35 13° NNE 20:47:35 13° NNE 20:48:24 10° NNE
Cosmos 2369 3.6 20:40:32 10° NNW 20:46:11 64° ENE 20:46:39 61° E
SL-27 R/B 4.1 20:48:14 10° SW 20:51:35 36° WNW 20:55:00 10° N
Cosmos 2218 Rocket 4.2 20:53:56 51° ENE 20:53:56 51° ENE 20:59:12 10° NNE
Meteor 1-21 Rocket 4.3 20:49:14 10° NNW 20:54:57 73° W 20:57:05 39° S
Meteor 2-15 Rocket 4.4 20:49:07 10° N 20:54:58 59° ENE 20:54:58 59° ENE
Cosmos 2285 Rocket 3.9 20:49:16 10° S 20:55:40 77° ESE 21:02:08 10° NNE
Cosmos 1809 Rocket 4.3 21:03:38 37° S 21:06:17 86° W 21:12:27 10° N
Okean 3 Rocket 4.3 21:04:02 10° NNW 21:08:04 52° WNW 21:08:04 52° WNW
Cosmos 1939 Rocket 4.5 21:13:42 32° NW 21:13:42 32° NW 21:16:09 10° NNW
SL-8 Rocket 3.9 21:14:56 70° SSW 21:15:41 84° W 21:21:53 10° N
Cosmos 1727 Rocket 4.4 21:13:16 10° N 21:18:13 52° NNE 21:18:13 52° NNE
Cosmos 2278 3.8 21:14:43 10° NNW 21:20:04 70° W 21:20:04 70° W
Cosmos 2322 Rocket 4.3 21:27:55 10° N 21:29:40 16° NNE 21:29:40 16° NNE
Cosmos 1656 4.3 21:31:15 10° NNW 21:35:48 53° WNW 21:35:48 53° WNW
Cosmos 1697 Rocket 3.5 21:34:33 10° NNW 21:38:32 47° NNW 21:38:32 47° NNW
Cosmos 1980 Rocket 3.5 21:36:38 10° NNW 21:39:51 34° N 21:39:51 34° N
SJ 16-02 4.2 21:43:44 10° WNW 21:45:25 12° W 21:46:14 11° WSW
SL-16 R/B 4.3 22:05:19 10° N 22:07:07 19° N 22:07:07 19° N
ATLAS 2AS CENTAUR R/B 3.8 22:17:34 10° NW 22:23:48 43° W 22:23:48 43° W
